Location: Nelson
(47.1935°N, 121.0537°W)
Time: 05:58:27
(UTC+00:00)

BlueWalker 3 - Pass Details

Date: 04 December 2022
Orbit: 499 x 517 km, 53.2° (Epoch: 27 January)

Event Time Altitude Azimuth Distance (km) Brightness Sun altitude
Rises 02:36:44 0° 295° (WNW) 2,633 6.5 -23.2°
Reaches altitude 10° 02:39:02 10° 303° (WNW) 1,741 5.3 -23.6°
Enters shadow 02:41:45 34° 335° (NNW) 861 3.2 -24.0°
